Theta_e
316 318 320 319 318 318 317 317 317 317 315 314 314 314 314 314 314 314 314 313 312 313 314 313 313 315 313 313 313 312 311 310 305 308 311 315 315 314 315 315 315 315 315
315 315 315 317 318 317 316 317 317 315 315 314 314 313 313 312 313 312 312 312 313 312 313 313 313 313 314 314 311 311 310 311 306 302 307 308 309 313 314 313 313 314 314
315 315 315 316 316 315 315 316 316 315 314 314 313 312 311 311 311 312 313 313 313 313 313 312 312 312 312 312 310 309 310 310 309 306 304 307 308 309 310 312 314 315 314
312 312 312 312 313 313 313 313 312 312 312 312 312 311 311 311 311 312 312 312 311 311 311 310 311 311 310 309 309 309 308 307 306 305 304 305 306 308 309 308 309 313 311
308 307 307 309 310 310 310 310 310 310 310 310 310 310 311 311 309 309 308 308 309 308 308 309 311 309 307 307 307 306 305 304 304 303 303 304 304 304 304 307 306 310 312
305 304 305 306 306 306 307 307 308 309 309 309 309 309 310 309 299 298 300 304 306 306 307 308 310 308 308 305 306 306 305 302 302 301 302 302 304 305 306 305 304 304 303
302 302 302 303 303 303 305 306 306 307 308 308 309 310 308 308 297 296 297 303 304 305 305 306 306 307 304 305 304 303 304 304 304 303 301 303 303 305 306 304 305 305 305
299 300 301 302 302 303 304 304 306 306 307 308 308 306 305 302 295 294 294 303 304 304 302 303 303 302 303 300 300 302 306 307 307 306 306 306 307 307 307 306 305 306 306
297 298 299 300 301 302 302 301 302 304 305 305 305 302 302 302 293 294 295 301 302 300 299 300 300 302 298 295 299 300 301 303 304 301 301 301 299 298 300 304 303 301 300
296 297 298 300 301 301 299 300 301 301 301 302 300 299 297 299 293 292 293 297 297 296 297 301 300 298 294 293 297 296 294 294 296 299 303 303 305 308 301 304 305 301 301
297 297 298 300 300 300 299 298 297 297 297 296 297 299 299 296 295 292 291 293 293 294 298 301 303 294 293 293 293 295 293 293 296 297 299 303 305 308 309 308 305 304 301
298 298 298 299 299 298 296 295 293 292 292 291 294 296 296 295 292 291 291 291 293 293 297 298 298 293 292 292 294 291 291 294 295 295 294 296 300 304 306 308 307 305 306
297 298 298 298 298 296 294 291 289 289 288 289 290 293 292 293 291 290 290 291 292 293 296 295 293 292 293 295 293 292 292 293 291 290 290 292 296 301 309 308 309 307 306
296 296 297 296 296 296 295 294 292 289 290 292 291 290 290 290 288 288 289 291 291 291 293 295 293 292 293 292 296 294 292 291 290 288 289 291 295 298 301 308 307 308 306
295 296 296 296 296 296 296 294 293 289 288 289 288 289 287 286 286 286 287 289 289 289 292 292 290 288 289 290 290 291 289 289 287 288 288 289 290 294 295 300 306 306 305
295 295 294 296 296 295 294 293 289 288 287 286 286 286 288 286 285 285 286 288 287 288 289 288 286 285 286 289 289 289 289 286 286 286 287 287 287 289 291 294 298 306 304
293 293 293 293 293 293 292 291 289 290 288 286 285 284 284 284 284 284 285 286 286 287 286 288 285 286 285 285 288 288 285 285 285 285 285 285 286 287 289 291 296 299 307
292 290 292 291 291 291 290 289 289 287 286 286 286 285 284 283 283 283 284 287 287 287 286 285 286 287 287 286 287 287 287 286 284 284 283 284 285 286 287 289 292 296 306
291 291 291 290 289 289 289 288 287 286 285 285 285 285 285 284 284 284 285 285 284 284 285 285 286 286 286 286 286 286 286 285 284 283 282 282 284 285 285 289 293 293 297
289 286 288 289 288 287 287 286 285 285 284 284 284 282 283 285 284 284 285 284 284 284 284 284 285 285 286 285 285 285 284 285 284 282 281 282 283 284 286 289 293 296 304
288 287 285 287 286 286 285 284 285 284 284 284 283 282 280 284 283 284 284 284 284 284 283 283 285 285 285 285 285 284 283 284 283 281 281 281 282 284 288 290 294 300 311
287 286 286 285 286 285 285 285 284 284 284 284 284 284 282 284 284 284 284 284 285 285 285 284 285 285 285 285 285 283 282 282 282 281 281 280 282 285 287 291 297 303 313
287 286 286 285 285 284 285 285 284 284 284 284 284 284 284 284 284 284 284 285 285 285 286 286 285 285 286 286 286 284 282 281 281 282 280 280 283 284 287 289 295 310 311
287 286 285 285 284 284 284 284 284 283 284 283 283 284 284 284 284 284 284 285 285 286 286 286 285 285 285 286 286 285 283 282 282 283 282 282 283 284 286 289 293 300 306
287 286 285 285 284 284 284 284 283 284 284 283 283 283 284 284 284 284 284 285 285 285 285 285 286 285 285 285 284 283 282 281 281 281 284 284 283 284 285 288 291 295 300
286 286 285 285 284 283 283 282 282 282 282 283 283 283 283 283 283 283 284 284 284 284 284 285 285 285 286 286 284 281 281 281 281 281 285 286 283 283 283 286 288 291 294
Wind_Speed
13 10 10 8 7 6 8 7 6 6 6 6 5 5 5 6 6 6 7 7 8 8 8 9 11 11 10 10 9 10 11 12 13 11 12 14 16 16 15 13 13 13 13
12 11 9 8 7 7 7 6 4 5 5 5 5 5 6 7 7 7 8 8 8 10 10 11 13 10 13 12 10 13 12 13 12 16 11 11 13 15 16 16 12 12 12
10 10 9 8 7 7 5 5 4 4 5 5 5 6 7 7 7 7 7 8 9 10 11 13 14 13 13 11 12 12 11 10 11 11 11 10 10 11 13 15 15 12 11
10 10 11 9 7 6 6 5 5 5 5 5 6 6 6 6 6 6 8 9 10 10 12 13 13 12 13 14 12 12 11 11 11 11 11 10 9 9 9 11 12 11 9
10 11 11 8 7 6 5 5 5 5 5 5 5 5 5 4 5 8 9 10 11 13 13 12 11 14 18 14 11 12 12 10 10 11 11 10 9 8 11 9 9 12 11
10 10 8 6 5 5 5 5 4 4 4 4 4 4 4 4 9 9 10 10 12 12 13 12 12 14 11 17 17 18 17 14 15 12 12 13 15 10 10 9 8 8 10
8 7 6 6 5 5 4 4 4 5 5 5 3 3 5 4 9 8 12 10 10 10 11 12 12 9 13 13 19 22 19 18 17 15 15 15 16 14 12 10 10 9 10
6 7 6 6 6 6 5 6 6 5 5 4 4 5 5 4 10 12 16 10 10 9 11 12 11 11 10 16 18 18 18 16 15 11 13 15 14 13 12 10 10 9 8
7 7 7 6 6 6 6 6 6 5 5 5 5 6 7 7 12 14 16 11 10 10 10 11 10 10 16 17 16 17 18 17 17 21 20 21 20 21 18 9 6 5 5
7 6 6 6 6 6 6 6 6 6 5 5 5 6 7 9 12 15 16 9 10 9 9 9 5 11 15 16 14 13 14 16 19 21 16 14 13 12 12 11 7 6 5
7 6 6 6 7 7 6 7 7 7 6 6 6 6 8 10 11 16 18 10 9 9 8 9 9 17 20 18 13 12 14 18 18 13 12 10 10 10 7 6 8 8 8
8 8 7 7 5 6 8 8 9 9 8 8 8 6 7 9 14 15 18 15 15 8 9 9 11 18 17 13 13 16 19 15 10 11 10 10 10 8 8 6 8 9 9
10 9 8 8 7 8 9 9 7 9 7 7 6 7 8 8 10 18 17 16 16 9 9 10 14 13 13 10 15 16 16 11 12 11 12 11 10 13 10 8 7 10 10
6 7 7 8 7 7 6 7 8 9 8 8 9 8 8 9 10 10 10 9 13 10 12 9 12 13 11 12 13 13 11 10 11 11 11 11 11 10 11 6 6 5 6
6 5 6 6 6 5 7 8 7 11 11 9 9 9 9 9 12 16 13 9 10 11 8 9 10 10 11 12 11 13 11 12 12 12 12 12 11 11 10 10 7 5 7
6 4 5 4 4 5 5 7 13 13 16 17 15 13 8 13 19 20 19 14 18 16 8 10 11 10 13 14 13 14 12 16 13 13 12 11 12 11 11 11 9 9 7
7 6 5 5 5 5 5 5 6 6 12 14 16 16 17 16 19 21 20 13 13 13 11 10 9 10 11 12 13 13 13 12 15 12 13 12 12 11 13 11 9 9 8
9 8 6 6 6 6 6 6 6 7 7 7 9 11 17 17 17 19 19 10 10 11 10 11 12 12 12 13 13 14 13 13 13 13 13 13 12 12 13 11 10 9 10
7 6 6 6 7 7 5 6 6 6 7 7 8 9 13 13 11 12 14 11 11 11 11 11 11 12 12 13 13 14 15 14 14 14 13 13 13 13 12 11 12 13 12
9 11 8 6 5 6 6 6 6 6 6 7 8 11 10 9 10 11 11 11 11 10 10 11 11 12 12 13 14 15 14 15 16 14 14 13 13 12 13 14 12 11 9
6 8 8 7 6 6 6 6 6 6 6 6 6 9 12 9 9 10 10 10 10 10 11 11 11 12 12 13 13 14 15 15 15 16 15 15 15 15 12 13 12 11 10
7 7 7 7 6 6 5 5 5 6 6 6 6 8 8 8 8 9 9 9 9 9 9 10 10 11 12 13 14 15 16 16 17 17 17 17 15 15 15 13 12 9 2
7 7 7 6 6 4 5 5 6 6 6 7 7 6 8 8 9 9 10 9 9 9 9 9 10 11 12 12 13 13 15 16 16 17 18 17 16 16 15 15 14 8 2
7 7 7 7 6 6 6 6 6 5 6 7 7 7 7 8 9 10 9 9 10 10 10 10 10 14 14 13 13 15 14 15 15 15 21 16 17 20 16 15 15 16 7
7 7 7 6 6 6 6 6 6 7 6 7 7 7 8 8 8 9 9 9 10 10 11 11 10 15 17 19 21 24 22 23 21 22 15 16 18 21 17 14 16 13 13
6 7 6 6 6 6 6 6 6 6 6 6 7 7 7 7 8 9 9 10 10 10 13 10 13 19 19 15 21 23 23 24 21 26 17 14 15 15 16 17 22 13 15
Wind_Direction
115 138 131 132 130 109 92 91 92 100 95 83 77 54 34 15 1 340 329 323 320 310 310 303 301 299 294 297 295 290 286 283 283 284 294 295 295 293 292 289 286 290 288
135 131 127 121 103 85 88 95 112 105 83 70 52 27 9 359 351 337 326 320 311 315 314 305 301 303 300 298 293 290 288 287 287 287 278 279 280 291 292 291 283 285 291
114 108 95 82 81 77 85 82 82 77 63 52 23 9 356 349 335 324 313 314 313 306 305 304 302 304 301 304 300 294 291 290 287 284 283 279 275 282 288 286 284 283 276
90 83 77 70 71 73 68 69 65 50 34 19 9 357 349 340 325 324 321 319 307 306 304 302 299 302 302 305 296 295 296 295 288 281 279 279 273 273 272 282 284 284 294
93 86 77 75 69 70 63 46 36 26 11 354 353 349 359 335 7 343 331 314 309 307 304 300 302 314 305 301 305 305 302 296 291 287 285 283 275 266 262 274 282 291 293
77 72 68 61 52 38 23 9 4 355 352 342 353 343 336 340 30 1 338 317 307 304 306 311 313 309 327 318 306 303 302 296 290 289 289 286 285 278 268 263 266 282 298
68 65 60 52 43 28 20 16 12 3 351 349 348 346 346 347 16 349 340 313 310 312 308 314 322 330 328 326 319 307 297 289 275 276 277 277 284 282 277 266 256 265 271
74 75 64 55 49 41 32 27 18 1 347 347 12 10 351 24 8 351 341 320 311 318 319 312 319 324 327 336 323 316 313 317 317 308 288 278 279 281 275 260 263 275 276
46 53 51 44 40 34 30 22 9 356 6 352 7 357 359 355 18 354 345 329 329 328 321 317 315 330 353 329 330 326 322 321 322 312 297 279 270 268 258 267 235 243 265
44 43 43 51 47 43 29 25 15 3 3 351 4 3 25 0 33 358 355 336 337 327 322 315 289 3 335 338 340 337 334 325 320 315 315 306 300 284 254 241 242 235 242
59 57 60 57 59 46 48 38 28 29 19 12 12 14 17 22 8 357 352 352 340 325 332 343 349 353 344 337 337 348 326 312 312 313 311 314 306 309 279 232 221 227 234
68 66 69 65 56 62 57 51 42 34 26 14 11 10 21 13 13 357 348 348 347 334 349 344 347 340 329 326 343 331 323 325 327 329 330 325 326 311 303 271 231 222 230
72 75 80 75 68 65 56 49 45 37 27 12 4 13 4 7 3 355 349 348 354 347 351 339 337 334 330 358 345 347 347 350 341 338 333 322 316 310 297 283 254 226 232
91 73 72 67 67 62 58 48 41 29 16 18 11 6 359 360 3 353 347 346 351 355 343 2 355 352 342 5 344 5 358 350 340 330 324 318 316 320 322 286 280 260 238
88 88 71 65 56 67 58 34 56 50 36 15 12 2 6 1 1 350 349 354 351 343 334 5 8 4 357 359 351 0 349 345 343 337 332 329 326 324 321 324 282 248 243
91 79 46 64 65 59 64 97 86 76 58 44 37 26 10 16 4 2 358 353 2 348 21 17 12 6 358 351 348 351 353 347 341 334 331 327 323 321 317 313 304 280 243
74 76 81 62 60 54 47 31 13 103 101 64 33 28 21 15 12 9 1 346 22 6 25 12 8 5 357 348 347 349 343 340 331 331 328 327 324 319 319 314 310 305 275
89 58 71 62 56 50 44 36 25 21 16 14 43 21 17 16 11 13 1 360 21 26 20 12 5 1 357 352 352 349 343 335 336 333 329 328 326 321 318 317 311 305 307
78 71 67 65 53 42 45 44 38 32 23 19 13 17 15 11 2 21 15 26 19 16 11 5 3 358 355 352 348 349 343 337 333 333 330 328 325 323 318 311 305 299 287
78 63 57 66 58 51 47 49 43 36 32 26 23 14 358 2 16 17 20 18 15 15 7 358 357 354 353 352 348 348 340 339 337 336 331 329 324 319 315 313 308 306 300
81 78 66 71 63 56 52 49 39 29 23 26 22 27 348 2 12 11 12 12 9 7 4 354 353 352 352 350 349 347 343 340 336 334 331 330 327 323 324 314 306 301 288
78 77 74 71 66 57 50 45 36 32 25 15 11 22 351 15 13 9 10 6 1 2 359 352 351 353 352 348 351 347 344 343 337 334 334 329 328 328 327 323 316 288 160
81 84 81 73 69 65 58 43 33 27 22 17 10 5 10 9 8 9 6 359 357 356 357 356 352 350 352 348 353 351 347 344 336 333 331 329 331 335 334 334 339 330 110
77 74 71 68 49 53 42 37 32 32 11 15 12 6 3 4 2 2 1 358 354 351 355 356 353 350 348 350 354 351 352 343 335 334 332 330 333 335 338 343 347 339 358
70 66 62 54 43 37 39 30 23 17 13 11 6 4 357 358 357 357 355 352 350 349 351 349 348 351 353 352 355 350 347 346 344 341 330 338 338 340 344 343 345 342 350
70 64 60 50 44 37 30 25 22 14 7 5 2 359 355 354 352 350 351 349 347 348 344 345 343 349 348 354 356 344 347 347 346 345 331 346 347 347 346 347 347 351 348